Back to catalog

COSMOS 2251 DEB

AliveLEO
NORAD 33841·DEBRIS·🇷🇺 Russia

Launched Jun 16, 1993 from Plesetsk Cosmodrome

Loading…

Next Passes (next 24 hours)

TLE

FreshSource: Space-Track

Epoch: Sep 14, 2026, 09:16 UTC

1 33841U 93036CJ  26257.38661686  .00000308  00000-0  11005-3 0  9997
2 33841  74.0369 130.3886 0020379 149.9366  25.1872 14.38164089920761

Track COSMOS 2251 DEB in real time with AllMySat

Download on the App Store